Simultaneous Nadir Overpasses (SNOs) Predictions

Prediction of SNOs between AQUA and NPP Satellite Orbit:

Table of predicted SNOs for the next 14.0 days since TLE Epoch: 4/6/2018
Index Date (AQUA) Time (AQUA) Lat,Lon (AQUA) SZA (AQUA ) Date (NPP) Time (NPP) Lat,Lon (NPP) SZA (NPP ) Distance(km) Time Diff (sec)
1 04/06/2018 22:38:55 76.01, 79.48 90.71 04/06/2018 22:38:16 76.01, 79.47 90.75 0.40 39
2 04/06/2018 23:28:02 -76.99,-109.57 90.46 04/06/2018 23:28:40 -76.99,-109.54 90.50 0.90 38
3 04/09/2018 14:55:19 76.28,-163.78 89.38 04/09/2018 14:55:06 76.28,-163.81 89.40 1.06 13
4 04/09/2018 15:44:27 -77.20, 7.11 91.74 04/09/2018 15:45:31 -77.21, 7.15 91.80 0.98 64
5 04/12/2018 06:22:36 -75.64, 142.49 90.88 04/12/2018 06:21:32 -75.64, 142.49 90.83 0.05 64
6 04/12/2018 07:11:43 76.55, -47.02 88.06 04/12/2018 07:11:56 76.55, -47.07 88.06 1.37 13
7 04/14/2018 22:38:58 -76.01,-100.55 92.28 04/14/2018 22:38:20 -76.01,-100.54 92.25 0.33 38
8 04/14/2018 23:28:06 76.86, 69.93 86.72 04/14/2018 23:28:45 76.85, 69.88 86.70 1.31 39
9 04/17/2018 14:55:18 -76.41, 16.61 93.70 04/17/2018 14:55:06 -76.41, 16.64 93.70 1.02 12
10 04/17/2018 15:44:29 77.10,-173.28 85.46 04/17/2018 15:45:34 77.10,-173.31 85.41 0.87 65
11 04/20/2018 06:22:38 75.52, -37.88 86.40 04/20/2018 06:21:35 75.51, -37.93 86.47 1.54 63




NCC Satellite Simultaneous Nadir Overpasses (SNOs) Prediction Service
